Location: Unspecified
(35.7250°N, 0.0000°E)
Time: 08:32:26
(UTC+00:00)

Vanguard 2 - Pass Details

Date: 19 June 2019
Orbit: 553 x 2938 km, 32.9° (Epoch: 23 July)

Event Time Altitude Azimuth Distance (km) Brightness Sun altitude
Rises 09:04:25 0° 243° (WSW) 3,308 10.5 50.0°
Reaches altitude 10° 09:06:30 10° 239° (WSW) 2,571 10.0 50.4°
Maximum altitude 09:12:34 59° 161° (SSE) 1,403 9.9 51.6°
Drops below altitude 10° 09:22:48 10° 86° (E) 4,232 12.1 53.7°
Sets 09:27:10 0° 83° (E) 5,623 12.5 54.6°
